Orbital Elements at Epoch 2459000.5 (2020-May-31.0) TDB
Reference: JPL 22 (heliocentric ecliptic J2000)
Element | Value | Uncertainty (1-sigma) | Units |
e | .1512821216503848 | 3.8697e-08 | |
a | 2.282293821494685 | 7.963e-09 | au |
q | 1.937023569949405 | 8.9501e-08 | au |
i | 4.767703425964466 | 4.5887e-06 | deg |
node | 224.6494076727523 | 4.2952e-05 | deg |
peri | 186.1705313948039 | 4.4753e-05 | deg |
M | 351.3043159109845 | 1.3078e-05 | deg |
tp | 2459030.919846030609 (2020-Jun-30.41984603) | 4.5795e-05 | TDB |
period | 1259.377003455425 3.45 | 6.591e-06 1.805e-08 | d yr |
n | .2858556246558793 | 1.496e-09 | deg/d |
Q | 2.627564073039966 | 9.1676e-09 | au |
|
| | Orbit Determination Parameters
Additional Information
|